Location: Austin
(30.3000°N, 97.7500°W)
Time: 04:06:37
(UTC-06:00)

Cosmos 2034 Rocket - Pass Details

Date: 20 November 2023
Orbit: 957 x 1000 km, 82.9° (Epoch: 04 December)

Event Time Altitude Azimuth Distance (km) Brightness Sun altitude
Rises 17:53:20 0° 360° (N) 3,679 6.8 -5.1°
Reaches altitude 10° 17:55:55 10° 4° (N) 2,722 6.1 -5.6°
Maximum altitude 18:02:02 56° 82° (E) 1,133 4.1 -6.8°
Drops below altitude 10° 18:08:03 10° 160° (SSE) 2,685 6.3 -8.1°
Sets 18:10:34 0° 165° (SSE) 3,625 7.0 -8.6°
